Flag for US Virgin Islands Weather past 2 weeks in Cruz Bay, US Virgin Islands

Now
84 °F

Passing clouds.


Feels Like: 90 °F
Forecast: 81 / 87 °F
Wind: 12 mph from East

Location: Cyril E. King International Airport

Current Time: Aug 1, 2015 at 12:02:53 AM

Latest Report: Jul 31, 2015 at 10:53 PM


Visibility: 10 mi

Pressure: 30.06 "Hg

Humidity: 67%

Dew point: 72 °F

Location of Cruz BayLocation

Historic Weather in Cruz Bay — Graph

°F

Cruz Bay temperature yesterday

Maximum temperature yesterday: 89 °F (at 9:53 AM)
Minimum temperature yesterday: 82 °F (at 3:53 AM)
Average temperature yesterday: 86 °F

Past Weeks' High & Low Weather Summary

 TemperatureHumidityPressure
High93 °F (Jul 27, 10:53 AM)88% (Jul 22, 12:53 AM)30.12 "Hg (Jul 22, 12:53 AM)
Low78 °F (Jul 19, 5:53 AM)46% (Jul 27, 10:53 AM)29.97 "Hg (Jul 21, 4:06 PM)
Average85 °F70%30.04 "Hg
* Reported Jul 16 10:53 PM — Jul 31 10:53 PM, Cruz Bay, Weather by CustomWeather, © 2015

Note: Actual official high and low records may vary slightly from our data, if they occured in-between our weather recording intervals... More about our weather records

Advertising

Cruz Bay weather history for previous 24 hours

 ConditionsComfort  
Time TempWeatherWind HumidityBarometerVisibility
10:53 PM
Fri, Jul 31
84 °FPassing clouds.12 mph67%30.06 "Hg10 mi
9:53 PM84 °FClear.12 mph70%30.05 "Hg10 mi
8:53 PM83 °FPassing clouds.9 mph72%30.04 "Hg10 mi
7:53 PM84 °FPartly cloudy.12 mph70%30.03 "Hg10 mi
6:53 PM85 °FPassing clouds.14 mph68%30.02 "Hg10 mi
6:43 PM85 °FPassing clouds.12 mph70%30.02 "Hg10 mi
6:26 PM86 °FPartly sunny.13 mph67%30.01 "Hg10 mi
5:53 PM87 °FBroken clouds.15 mph63%30.01 "Hg10 mi
5:38 PM87 °FScattered clouds.15 mph63%30.00 "Hg10 mi
5:13 PM86 °FOvercast.15 mph67%30.00 "Hg10 mi
4:53 PM87 °FMostly cloudy.17 mph65%30.01 "Hg10 mi
3:53 PM88 °FScattered clouds.18 mph63%30.00 "Hg10 mi
2:53 PM87 °FScattered clouds.18 mph65%30.01 "Hg10 mi
2:12 PM88 °FMostly cloudy.16 mph65%30.02 "Hg10 mi
1:53 PM89 °FMostly cloudy.13 mph61%30.03 "Hg10 mi
1:42 PM87 °FOvercast.17 mph65%30.04 "Hg10 mi
12:53 PM88 °FMostly cloudy.14 mph65%30.05 "Hg10 mi
11:53 AM88 °FMostly cloudy.16 mph63%30.06 "Hg10 mi
11:43 AM87 °FPartly sunny.17 mph65%30.06 "Hg10 mi
10:53 AM86 °FScattered clouds.23 mph70%30.07 "Hg10 mi
9:53 AM89 °FPartly sunny.10 mph63%30.07 "Hg10 mi
9:40 AM88 °FPartly sunny.18 mph61%30.07 "Hg10 mi
9:14 AM88 °FPartly sunny.14 mph65%30.07 "Hg10 mi
9:00 AM86 °FBroken clouds.12 mph75%30.07 "Hg10 mi
8:53 AM85 °FLight rain. Cloudy.15 mph77%30.07 "Hg10 mi
8:33 AM86 °FMostly cloudy.16 mph67%30.06 "Hg10 mi
7:53 AM87 °FOvercast.14 mph67%30.05 "Hg10 mi
7:44 AM85 °FMore clouds than sun.13 mph72%30.05 "Hg10 mi
7:00 AM84 °FPartly sunny.13 mph72%30.05 "Hg10 mi
5:53 AM83 °FClear.12 mph74%30.02 "Hg10 mi
4:53 AM83 °FPassing clouds.10 mph74%30.01 "Hg10 mi
3:53 AM82 °FClear.8 mph77%30.01 "Hg10 mi
3:17 AM83 °FPassing clouds.14 mph74%30.01 "Hg10 mi
2:53 AM83 °FPassing clouds.10 mph74%30.02 "Hg10 mi
2:01 AM83 °FPassing clouds.10 mph77%30.02 "Hg10 mi
1:53 AM83 °FPassing clouds.8 mph74%30.03 "Hg10 mi
12:53 AM83 °FClear.9 mph74%30.04 "Hg10 mi
Weather by CustomWeather, © 2015

See weather overviewHow to use our weather pages